Home   Weather   Ponferrada   Past weeks
Flag for Spain

Past Weather in Ponferrada, Spain — Yesterday and Last 2 Weeks

Now
56 °F

Fog.


Feels Like: 55 °F
Forecast: 58 / 50 °F
Wind: 5 mph from West

Location: Ponferrada

Current Time: Oct 18, 2019 at 3:25:08 am

Latest Report: Oct 18, 2019 at 2:00 am


Visibility: 13 mi

Pressure: 30.01 "Hg (28.19 "Hg at 524m altitude)

Humidity: 85%

Dew Point: 51 °F

Location of PonferradaLocation

Past Weather in Ponferrada — Graph

°F

Ponferrada Temperature Yesterday

Maximum temperature yesterday: 69 °F (at 6:00 pm)
Minimum temperature yesterday: 55 °F (at 9:00 am)
Average temperature yesterday: 60 °F

High & Low Weather Summary for the Past Weeks

 TemperatureHumidityPressure
High85 °F (Oct 7, 6:00 pm)98% (Oct 17, 7:00 am)30.29 "Hg (Oct 17, 7:00 am)
Low42 °F (Oct 10, 9:00 am)20% (Oct 7, 4:00 pm)29.69 "Hg (Oct 14, 3:00 am)
Average60 °F70%30.05 "Hg
* Reported Oct 3 1:00 am — Oct 18 1:00 am, Ponferrada. Weather by CustomWeather, © 2019

Note: Actual official high and low records may vary slightly from our data, if they occured in-between our weather recording intervals... More about our weather records

Advertising

Ponferrada Weather History for the Previous 24 Hours

Scroll right to see more
 ConditionsComfort  
Time TempWeatherWind HumidityBarometerVisibility
1:00 am
Fri, Oct 18
57 °FCool.3 mph87%30.01 "Hg12 mi
12:00 am58 °FCool.3 mph88%29.99 "Hg12 mi
11:00 pm
Thu, Oct 17
59 °FCool.2 mph89%29.99 "Hg10 mi
10:00 pm62 °FCool.2 mph74%29.96 "Hg12 mi
9:00 pm64 °FMild.2 mph65%29.94 "Hg12 mi
8:00 pm65 °FMild.2 mph61%29.94 "Hg12 mi
7:00 pm66 °FMild.2 mph54%29.93 "Hg5 mi
6:00 pm69 °FMild.3 mph44%29.92 "Hg2 mi
4:00 pm69 °FMild.7 mph46%29.93 "Hg2 mi
3:00 pm67 °FMild.8 mph48%29.96 "Hg2 mi
2:00 pm65 °FScattered clouds.7 mph56%29.98 "Hg19 mi
1:00 pm64 °FMild.6 mph67%29.98 "Hg12 mi
12:00 pm61 °FCool.6 mph81%30.00 "Hg12 mi
11:00 am58 °FFog.1 mph93%30.00 "Hg5 mi
10:00 am55 °FCool.1 mph97%30.00 "Hg12 mi
9:00 am55 °FCool.1 mph97%29.97 "Hg9 mi
8:00 am55 °FPassing clouds.2 mph98%29.96 "Hg1 mi
7:00 am55 °FDrizzle. Overcast.1 mph98%29.95 "HgN/A
6:00 am55 °FCool.1 mph97%29.93 "Hg2 mi
5:00 am55 °FDrizzle. Overcast.1 mph97%29.94 "Hg5 mi
4:00 am55 °FDrizzle. Overcast.3 mph97%29.95 "Hg4 mi
Weather by CustomWeather, © 2019

See weather overview